Temperature
11 10 9 10 11 12 12 12 12 12 12 11 11 11 12 12 12 12 12 12 11 10 10 9 9 9 8 8 8 8 8 8 8 8 8 8 8 8 8 8 8 8 8 8
10 9 11 12 12 11 11 11 11 11 12 11 10 10 11 12 11 12 12 11 11 10 10 9 9 8 8 8 8 8 8 8 8 7 7 7 7 7 7 7 7 7 7 7
10 10 11 11 11 11 11 10 10 10 10 10 10 9 10 11 12 12 11 11 10 10 9 9 8 8 8 7 7 7 7 7 7 7 7 7 6 6 6 7 7 7 7 7
10 10 10 10 10 10 9 10 10 9 8 8 10 8 10 10 10 10 10 10 10 9 9 8 8 7 7 7 7 7 7 7 7 7 7 6 6 6 6 6 6 6 6 6
9 9 9 9 9 10 9 9 9 9 8 7 9 8 9 10 9 9 10 10 9 9 8 8 7 7 7 7 7 7 7 6 6 6 6 6 6 6 6 6 6 6 6 6
9 9 9 9 9 9 8 8 8 8 7 6 8 8 9 9 9 9 9 9 8 8 7 7 7 6 6 6 6 6 6 6 6 6 6 6 6 6 5 5 5 5 5 5
8 8 8 8 8 8 8 7 7 7 6 7 8 8 8 10 9 8 8 8 8 7 7 6 6 6 6 6 6 6 6 5 5 5 5 5 5 5 5 5 5 5 5 5
7 7 8 7 7 7 7 7 6 7 7 8 7 7 8 9 8 8 8 7 7 6 6 5 5 5 5 5 5 5 5 5 5 5 5 5 5 5 4 4 4 4 4 4
7 7 7 7 8 7 7 6 7 6 6 6 7 8 8 8 7 7 7 7 6 5 5 5 5 5 5 4 4 4 4 4 4 4 4 4 4 4 4 4 4 4 4 4
7 6 6 6 7 6 7 7 5 5 6 7 8 8 7 6 6 6 6 6 5 5 5 4 4 4 4 4 4 4 4 4 4 4 4 4 4 4 4 4 3 3 3 3
6 5 5 5 5 5 5 5 5 5 6 6 6 7 8 7 6 5 5 5 5 5 4 4 4 4 3 3 3 3 3 3 3 3 3 3 3 3 3 3 3 3 3 3
5 4 4 5 5 6 6 6 5 5 5 5 5 6 7 6 6 6 5 5 5 4 4 4 3 3 3 3 3 3 3 3 3 3 2 2 2 2 2 2 2 2 2 2
4 3 3 4 4 4 4 5 5 4 4 4 5 6 6 6 6 6 5 5 4 4 4 3 3 3 3 3 3 2 2 2 2 2 2 2 2 2 2 2 2 2 2 2
4 3 3 5 5 3 3 4 4 3 3 4 5 6 5 5 5 5 5 4 4 4 4 3 3 3 2 2 2 2 2 2 2 2 2 2 1 1 1 1 1 1 1 1
3 2 2 3 4 4 4 3 3 3 4 4 5 5 6 5 5 5 5 4 4 3 3 3 2 2 2 2 2 2 1 1 1 1 1 1 1 1 1 1 0 0 0 0
1 2 2 2 3 4 3 3 3 3 4 4 4 5 6 6 6 5 4 4 3 3 3 3 2 2 2 1 1 1 1 1 1 1 1 1 1 0 0 0 0 0 0 0
1 1 2 2 3 3 3 3 3 3 3 4 4 4 5 5 4 4 4 4 3 3 3 2 2 2 1 1 1 1 1 1 1 1 1 0 0 0 0 -0 -0 -0 -0 -0
1 1 1 2 2 2 4 4 4 4 3 4 4 4 4 4 4 4 4 3 3 3 2 2 2 1 1 1 1 1 0 0 0 0 0 0 0 0 -0 -0 -0 -0 -1 -1
0 1 1 1 2 3 4 3 3 3 3 3 3 4 4 4 3 3 3 3 3 2 2 2 1 1 1 1 0 0 0 0 0 0 0 -0 -0 -0 -0 -0 -1 -1 -1 -1
-0 -0 1 1 2 2 4 3 3 3 2 3 3 3 2 3 1 1 3 3 2 2 2 1 1 1 0 0 0 0 0 -0 -0 -0 -0 -0 -0 -0 -1 -1 -1 -1 -1 -2
-1 -0 0 1 1 2 2 2 3 2 2 3 3 3 2 2 2 2 2 2 2 1 1 1 0 0 0 -0 -0 -0 -0 -0 -1 -1 -1 -1 -1 -1 -1 -1 -1 -2 -2 -2
-0 -0 -0 0 1 2 1 1 1 2 2 3 3 3 2 2 2 2 1 1 1 1 0 0 -0 -0 -1 -1 -1 -1 -1 -1 -1 -1 -1 -1 -1 -1 -1 -2 -2 -2 -2 -2
0 0 1 1 1 1 1 2 2 2 2 2 2 2 2 1 1 1 1 1 0 0 -0 -1 -1 -1 -1 -1 -1 -1 -1 -1 -1 -1 -1 -2 -2 -2 -2 -2 -2 -2 -2 -3
0 0 0 0 1 1 2 2 2 2 2 2 2 2 1 1 1 0 0 0 -0 -0 -1 -1 -1 -1 -1 -1 -1 -1 -2 -2 -2 -2 -2 -2 -2 -2 -2 -2 -2 -3 -3 -3
0 -1 -1 -1 -0 0 1 2 2 1 1 1 1 1 1 1 0 0 -0 -0 -1 -1 -1 -1 -2 -2 -2 -2 -2 -2 -2 -2 -2 -2 -2 -3 -3 -3 -3 -3 -3 -3 -3 -3
-0 -1 -1 -0 1 0 1 1 1 1 1 1 1 0 1 0 0 -0 -0 -1 -1 -1 -1 -2 -2 -2 -2 -2 -2 -2 -2 -2 -3 -3 -3 -3 -3 -3 -3 -3 -3 -4 -4 -4
Wind_Speed
5 4 6 7 8 7 6 7 9 5 2 4 8 10 9 6 6 6 6 6 5 4 4 4 4 3 3 3 3 2 2 2 2 2 2 2 2 1 1 1 1 2 2 2
4 8 8 5 5 6 8 9 8 5 2 4 7 11 9 7 8 7 6 6 6 4 4 5 4 4 3 3 2 2 3 3 2 2 2 2 2 1 1 1 1 1 2 2
7 3 4 5 5 7 9 8 6 5 5 5 6 8 8 6 5 5 5 5 5 5 4 4 4 3 3 3 3 3 3 3 2 2 2 1 1 1 1 1 1 1 1 2
6 5 4 5 7 6 7 4 5 4 4 4 4 6 7 7 6 6 6 4 5 4 4 4 4 3 3 2 3 3 3 2 2 3 3 3 2 2 2 2 2 2 2 1
4 3 4 6 5 5 2 2 4 5 5 6 6 6 6 5 7 7 5 4 4 3 3 3 4 3 2 2 2 2 2 2 2 2 3 3 2 1 1 1 2 2 2 2
5 3 3 3 2 2 1 2 4 4 3 6 8 7 6 5 7 6 4 4 3 2 2 2 3 3 2 2 2 2 2 2 1 2 2 3 3 2 2 1 2 2 1 2
5 6 3 2 2 3 3 1 1 2 4 7 4 5 6 2 3 4 4 3 4 3 3 2 2 2 2 2 1 2 2 2 1 2 2 2 3 3 3 2 2 2 2 1
4 5 6 4 4 4 5 4 4 4 4 3 2 6 4 2 3 4 4 3 3 3 3 2 2 2 2 2 2 2 2 1 1 1 1 2 2 2 2 2 2 2 2 2
3 3 3 3 2 3 4 5 2 1 3 4 5 4 2 3 4 3 3 3 3 2 2 2 2 2 2 1 2 2 2 2 1 1 1 1 1 1 2 2 1 1 1 1
2 3 3 3 2 4 3 2 2 3 3 5 5 6 4 5 4 3 2 2 2 2 1 1 2 2 1 1 1 2 2 2 1 1 1 1 1 1 1 1 1 1 1 1
3 3 2 3 7 6 5 4 4 4 4 3 4 4 0 5 6 5 3 2 2 2 1 1 1 1 1 1 2 2 2 2 2 2 1 0 0 0 1 1 1 1 1 2
2 1 4 4 2 2 5 6 6 5 5 4 4 5 0 4 4 4 3 2 2 1 1 1 2 1 1 1 2 2 2 1 1 2 1 1 1 1 1 1 0 1 1 2
2 3 2 2 2 2 4 4 5 3 2 4 5 5 0 3 2 2 3 2 2 1 1 1 1 2 2 1 1 2 1 1 1 2 1 1 1 1 0 0 0 0 0 1
2 4 6 7 3 3 5 6 6 5 5 6 8 7 5 3 2 2 2 2 2 2 1 1 1 1 2 1 1 1 1 1 1 2 1 1 1 1 1 0 0 0 0 1
1 4 6 8 8 5 7 9 9 11 10 8 8 8 7 5 3 2 2 2 1 1 1 1 0 1 1 1 1 1 1 1 1 1 1 1 1 1 1 0 1 1 1 1
2 4 4 7 7 6 9 10 12 12 12 12 11 11 5 3 2 2 2 2 2 2 2 1 1 1 1 1 1 0 1 1 1 1 1 1 1 1 1 1 1 1 1 1
4 3 3 4 3 3 8 11 13 9 8 9 12 9 3 2 2 3 3 2 3 3 2 2 2 2 1 1 1 1 1 0 1 0 0 1 1 1 1 1 1 1 1 1
5 4 3 3 1 7 6 2 7 9 9 8 7 5 3 3 2 2 2 3 3 2 2 1 1 1 1 1 1 1 1 0 1 1 0 1 0 1 1 1 1 2 1 1
5 5 4 3 4 7 4 2 3 5 6 6 8 5 2 0 2 2 1 2 2 2 1 1 1 1 1 1 1 1 1 0 0 1 1 1 1 1 1 2 2 2 1 2
2 4 4 4 4 6 3 1 1 2 4 3 3 3 2 2 1 3 0 2 2 2 2 1 1 1 1 1 1 1 1 1 1 1 1 1 1 2 2 2 2 2 1 2
3 3 6 7 6 6 2 1 2 3 5 1 2 2 2 3 4 2 2 2 2 2 2 2 2 1 1 1 1 1 1 1 1 1 1 1 2 2 2 2 2 2 2 2
5 4 5 4 5 6 1 3 4 4 1 1 1 1 1 1 2 1 2 2 2 2 2 2 1 1 0 1 1 1 1 1 1 1 1 1 1 2 1 1 1 1 1 2
5 6 4 6 5 2 3 3 3 1 2 2 1 1 2 2 2 1 1 1 2 1 1 1 1 1 0 0 1 2 2 1 0 0 1 1 1 1 1 1 1 1 1 1
4 2 3 4 5 4 4 4 3 2 2 2 1 2 3 3 3 2 2 2 1 1 1 1 1 1 0 1 0 1 1 1 1 1 1 1 1 1 1 1 1 1 1 1
5 3 4 6 6 5 5 5 3 2 2 2 1 2 3 4 3 3 2 2 2 1 1 1 1 1 1 1 1 1 0 0 1 1 1 1 1 1 1 1 1 2 2 3
5 6 6 7 5 4 5 3 3 2 2 2 2 1 1 3 3 3 3 2 2 2 1 1 1 1 1 1 1 1 1 1 1 1 1 1 1 1 1 1 2 3 4 5
Wind_Direction
194 217 224 224 225 258 283 274 272 276 247 240 249 258 257 235 224 230 225 211 198 195 171 152 154 148 143 142 146 161 158 159 157 166 171 183 199 187 154 98 114 132 139 139
216 234 242 250 251 262 270 267 272 288 274 267 266 266 258 240 226 224 221 206 193 187 169 160 163 161 159 160 168 182 178 173 172 180 186 194 193 184 167 128 122 134 140 145
224 247 239 239 241 248 255 257 265 279 303 269 270 272 243 234 225 218 217 198 188 181 175 165 163 159 160 168 182 197 193 183 174 164 155 157 153 158 159 178 164 138 156 158
238 242 241 232 240 240 256 276 279 275 279 265 219 271 248 221 221 219 210 196 182 171 169 164 162 164 171 187 185 190 189 185 168 160 166 169 187 200 204 188 173 159 156 147
232 215 229 236 243 240 245 335 283 266 259 275 239 245 259 209 224 224 204 182 152 148 142 153 158 155 150 165 172 181 176 179 171 162 175 182 195 201 166 150 148 147 136 133
244 246 245 252 276 246 229 279 264 253 248 254 224 217 259 211 209 200 186 162 139 129 119 118 121 117 111 110 137 151 156 163 158 158 178 184 183 184 175 172 166 162 156 141
240 216 201 209 217 205 204 188 258 243 224 240 210 215 243 197 116 153 172 159 142 133 124 120 111 109 123 119 137 148 156 164 162 157 172 186 187 187 188 188 184 184 177 169
236 234 187 196 212 208 211 192 197 232 244 270 231 229 233 127 104 104 114 127 123 116 117 129 137 137 142 143 151 158 173 175 165 164 180 184 180 182 183 187 188 196 188 180
235 235 134 182 237 223 198 211 225 260 271 265 242 231 213 113 97 91 92 113 122 125 121 132 126 127 129 148 173 171 172 175 170 161 150 156 160 175 177 173 156 180 180 165
279 261 205 176 220 255 252 206 151 195 229 255 250 228 218 177 184 167 157 152 148 130 133 136 123 122 131 152 156 134 133 135 117 100 81 128 159 172 159 142 154 171 167 158
260 223 213 188 205 205 193 200 201 217 232 232 261 255 202 174 175 175 187 192 175 170 176 151 124 127 133 126 134 119 114 108 100 83 41 126 132 140 129 142 168 179 167 170
200 209 246 229 209 252 223 209 188 199 235 232 250 264 56 115 128 141 164 173 154 151 161 130 128 135 136 130 129 119 111 106 104 96 63 96 84 54 76 107 167 184 182 180
168 173 247 247 225 239 243 229 212 209 228 224 227 254 340 97 96 134 152 144 125 119 110 108 113 138 129 113 103 103 102 106 105 98 66 89 98 92 66 287 219 196 195 206
198 204 215 230 243 200 231 231 213 198 215 237 234 251 264 241 237 197 159 157 159 171 150 115 82 124 124 110 105 99 99 97 93 99 110 136 137 155 172 253 257 241 234 243
185 231 243 265 276 244 236 227 215 219 222 230 251 258 253 236 226 203 185 182 186 196 184 157 145 120 122 102 76 75 73 81 103 127 128 181 184 162 150 206 247 248 260 275
205 246 262 266 252 246 253 234 222 230 235 245 262 271 268 249 198 203 203 201 215 226 224 211 212 175 145 145 151 131 78 57 101 124 154 204 189 177 179 215 242 253 263 274
202 208 243 260 229 275 252 229 217 218 218 219 240 250 267 267 229 224 215 206 213 225 235 218 206 194 177 183 181 172 179 116 81 97 278 227 205 208 209 226 241 256 260 273
203 207 233 258 239 237 241 189 203 218 230 222 239 252 238 237 237 230 190 194 216 222 222 213 179 165 177 184 176 171 169 191 185 183 279 247 214 237 245 238 250 265 262 265
210 197 221 231 241 263 262 217 190 205 247 228 233 245 250 77 347 285 194 182 196 196 183 177 158 154 166 178 179 156 194 229 211 208 239 245 235 243 257 254 259 266 265 271
207 193 216 229 237 242 251 200 189 147 265 274 222 219 180 126 242 250 176 86 88 79 89 93 96 107 143 177 152 148 196 213 238 252 262 266 255 243 253 256 264 275 266 265
166 199 221 235 247 261 265 188 127 171 251 286 196 202 181 202 216 191 115 87 85 74 78 88 99 113 151 171 154 169 206 238 239 260 277 275 263 248 252 260 266 264 270 276
186 189 206 210 227 253 168 143 184 225 249 252 237 209 183 182 146 121 108 109 95 79 74 81 92 87 113 149 157 183 234 247 211 242 260 270 272 264 253 240 258 254 252 264
211 210 211 207 221 255 178 202 234 246 264 282 264 230 180 183 193 189 182 158 137 123 99 92 116 107 26 138 168 193 235 229 210 278 281 272 274 269 241 224 240 255 249 255
251 233 237 261 267 263 250 262 269 265 262 269 246 210 188 199 195 192 184 170 158 132 116 119 132 159 281 316 354 207 215 192 172 226 270 277 282 285 272 257 240 229 242 255
242 217 240 255 269 285 263 253 262 284 296 280 262 223 191 182 192 192 189 184 176 163 156 164 180 195 247 302 349 333 301 160 191 230 262 287 287 270 288 299 282 264 251 249
235 225 228 247 251 245 263 274 269 263 264 256 232 235 182 172 180 179 186 186 177 178 175 182 201 208 242 298 317 317 316 240 207 254 277 285 288 287 277 291 314 299 276 279
Height
1486 1489 1489 1486 1485 1484 1483 1484 1483 1481 1480 1482 1482 1480 1477 1476 1477 1477 1478 1479 1480 1481 1482 1483 1484 1486 1486 1487 1488 1489 1489 1490 1491 1491 1492 1493 1494 1495 1496 1496 1498 1499 1500 1501
1486 1487 1483 1482 1482 1483 1483 1484 1483 1481 1480 1481 1480 1477 1473 1472 1472 1473 1474 1475 1476 1478 1479 1480 1481 1482 1483 1484 1484 1485 1486 1487 1488 1488 1489 1490 1491 1492 1493 1494 1495 1496 1497 1498
1483 1482 1480 1481 1482 1483 1482 1483 1482 1483 1482 1479 1481 1478 1471 1467 1468 1469 1470 1471 1473 1474 1476 1477 1478 1479 1480 1481 1481 1482 1483 1484 1485 1486 1487 1487 1488 1489 1490 1491 1492 1493 1494 1495
1480 1479 1479 1480 1481 1481 1484 1481 1481 1483 1487 1486 1481 1485 1468 1465 1465 1465 1466 1468 1469 1471 1473 1474 1475 1476 1477 1478 1479 1479 1480 1481 1482 1483 1483 1484 1485 1486 1487 1488 1488 1490 1491 1491
1478 1478 1479 1479 1479 1480 1481 1481 1482 1483 1485 1487 1480 1484 1470 1462 1463 1462 1463 1465 1467 1469 1470 1471 1472 1473 1474 1475 1476 1476 1477 1478 1479 1480 1481 1481 1482 1483 1484 1485 1486 1487 1488 1489
1477 1477 1478 1478 1478 1479 1481 1482 1483 1484 1487 1490 1476 1478 1468 1460 1457 1459 1461 1463 1464 1466 1468 1469 1470 1471 1471 1472 1472 1473 1474 1475 1476 1477 1477 1478 1479 1480 1481 1481 1482 1483 1485 1485
1476 1475 1476 1477 1479 1480 1481 1486 1490 1488 1488 1481 1468 1471 1464 1454 1454 1456 1458 1461 1463 1465 1465 1466 1467 1468 1468 1469 1469 1470 1471 1472 1473 1474 1474 1475 1476 1477 1478 1478 1479 1480 1481 1482
1476 1476 1474 1475 1477 1479 1479 1481 1488 1487 1480 1473 1472 1470 1460 1454 1454 1455 1457 1460 1462 1463 1464 1464 1465 1465 1466 1466 1467 1468 1469 1469 1470 1471 1472 1472 1473 1474 1475 1476 1477 1477 1478 1479
1475 1474 1473 1474 1475 1476 1477 1479 1478 1483 1482 1482 1469 1458 1456 1454 1455 1457 1458 1459 1460 1462 1462 1463 1463 1463 1463 1464 1464 1465 1466 1467 1468 1468 1469 1470 1471 1471 1472 1473 1474 1474 1475 1476
1473 1477 1473 1474 1475 1475 1475 1476 1481 1484 1482 1475 1462 1458 1458 1457 1457 1457 1458 1458 1460 1461 1461 1461 1462 1462 1462 1462 1462 1463 1464 1464 1465 1466 1466 1467 1468 1469 1469 1470 1470 1471 1472 1473
1473 1478 1476 1475 1475 1474 1476 1477 1477 1478 1475 1475 1470 1460 1448 1450 1452 1455 1456 1457 1458 1459 1460 1460 1460 1460 1460 1461 1461 1461 1461 1462 1463 1463 1464 1465 1465 1466 1466 1466 1467 1468 1469 1470
1472 1476 1477 1471 1470 1469 1470 1471 1474 1479 1477 1472 1471 1464 1448 1448 1449 1452 1455 1456 1457 1458 1458 1459 1459 1459 1459 1459 1459 1459 1459 1460 1460 1461 1462 1462 1462 1463 1463 1464 1464 1465 1465 1466
1472 1477 1478 1472 1474 1473 1471 1469 1470 1474 1474 1472 1471 1462 1449 1449 1450 1452 1454 1455 1456 1456 1456 1457 1457 1456 1457 1457 1457 1458 1458 1458 1458 1459 1459 1459 1460 1461 1461 1461 1462 1462 1463 1463
1470 1474 1473 1468 1463 1468 1470 1468 1468 1472 1474 1469 1461 1455 1452 1450 1450 1451 1452 1453 1454 1454 1455 1455 1455 1455 1455 1455 1456 1456 1456 1456 1456 1456 1457 1457 1458 1458 1459 1459 1460 1460 1460 1461
1470 1472 1469 1464 1461 1461 1462 1464 1465 1467 1464 1465 1455 1452 1447 1448 1449 1450 1451 1451 1452 1453 1453 1453 1453 1453 1453 1454 1454 1454 1454 1454 1454 1455 1455 1455 1456 1456 1456 1457 1457 1458 1458 1458
1470 1470 1468 1465 1459 1459 1459 1457 1459 1459 1458 1456 1453 1450 1444 1445 1446 1448 1449 1449 1450 1450 1451 1451 1451 1451 1451 1452 1452 1452 1452 1453 1453 1452 1453 1453 1454 1454 1454 1454 1455 1455 1455 1455
1468 1470 1468 1462 1458 1458 1456 1449 1450 1451 1449 1450 1451 1446 1443 1443 1444 1445 1446 1447 1447 1448 1449 1448 1448 1449 1449 1449 1450 1450 1450 1451 1451 1451 1451 1451 1451 1451 1452 1452 1452 1452 1452 1452
1466 1467 1467 1463 1462 1462 1444 1438 1439 1442 1442 1443 1442 1440 1440 1441 1442 1443 1444 1445 1445 1445 1446 1446 1446 1446 1447 1447 1448 1448 1448 1449 1449 1448 1449 1449 1449 1449 1449 1450 1450 1450 1450 1450
1460 1463 1463 1462 1458 1448 1440 1438 1438 1441 1440 1437 1438 1438 1439 1439 1440 1441 1442 1442 1442 1443 1443 1444 1444 1444 1444 1445 1445 1445 1446 1446 1446 1446 1446 1446 1446 1446 1447 1447 1447 1447 1447 1446
1459 1460 1462 1458 1455 1450 1439 1437 1435 1439 1441 1435 1434 1436 1437 1438 1443 1441 1440 1440 1440 1440 1441 1441 1441 1442 1442 1442 1443 1443 1443 1443 1443 1444 1444 1444 1444 1444 1444 1444 1444 1444 1444 1443
1460 1459 1459 1456 1452 1444 1438 1436 1436 1443 1440 1434 1433 1434 1435 1437 1438 1438 1437 1438 1438 1438 1439 1439 1439 1439 1440 1440 1441 1441 1441 1441 1441 1442 1442 1442 1442 1441 1441 1441 1441 1441 1441 1441
1454 1455 1455 1453 1452 1446 1437 1437 1438 1436 1433 1432 1432 1432 1433 1434 1434 1435 1436 1436 1436 1437 1437 1437 1437 1437 1438 1438 1439 1439 1439 1439 1439 1439 1439 1439 1439 1439 1439 1438 1438 1438 1438 1438
1448 1446 1444 1444 1442 1435 1434 1433 1432 1432 1431 1430 1430 1431 1431 1432 1433 1434 1434 1434 1435 1435 1435 1435 1436 1436 1436 1437 1437 1436 1437 1437 1437 1437 1437 1436 1436 1436 1436 1436 1436 1436 1435 1435
1442 1441 1441 1439 1434 1432 1432 1431 1431 1430 1429 1429 1429 1429 1429 1430 1431 1432 1433 1433 1433 1433 1434 1434 1434 1434 1434 1435 1435 1435 1435 1435 1434 1434 1434 1434 1434 1434 1434 1434 1433 1433 1433 1432
1439 1440 1439 1437 1433 1431 1429 1429 1428 1428 1427 1427 1427 1427 1427 1428 1429 1430 1430 1431 1431 1431 1432 1432 1432 1432 1432 1433 1433 1433 1433 1433 1432 1432 1432 1431 1431 1431 1431 1431 1431 1431 1430 1430
1434 1435 1436 1432 1428 1429 1426 1426 1426 1425 1425 1424 1424 1424 1425 1426 1427 1427 1428 1429 1429 1429 1430 1430 1430 1430 1430 1430 1430 1431 1431 1431 1430 1429 1429 1429 1429 1429 1429 1428 1428 1428 1428 1428